Cosmos 1992 Rocket - Orbit

View from above orbital plane
View from above orbital plane
View from above satellite
View from above satellite

Ground track
Ground track

The orbit data is extracted from the following two-line orbital elements,

1 19770U 89005B   13142.46149661  .00000219  00000-0  80947-4 0  8379
2 19770 074.0465 268.0432 0005494 344.8599 059.1961 14.38147928272785
Epoch (UTC): 22 May 2013 11:04:33
Eccentricity: 0.0005494
inclination: 74.0465°
perigee height: 761 km
apogee height: 768 km
right ascension of ascending node: 268.0432°
argument of perigee: 344.8599°
revolutions per day: 14.38147928
mean anomaly at epoch: 59.1961°
orbit number at epoch: 27278

The dashed part of the orbit path shows where the satellite is in the earth's shadow,  

Developed and maintained by Chris Peat, Heavens-Above GmbH. Please read the updated FAQ before sending e-mail. Imprint. DLR